When you browse on this site, cookies collect data to enhance your experience and personalize the content and advertising you see.
Visit our Privacy Policy to learn more. By continuing to use the site, you agree to this use of cookies and data.

Hourly Weather Trujillo

Today, 12 July, Sunday

Time Temperature Precipitation Wind Pressure Humidity
00:00 +18°C° 0 mm 1 mps 647 mmHg 87%
01:00 +18°C° 0 mm 1 mps 646 mmHg 87%
02:00 +18°C° 0 mm 1 mps 646 mmHg 86%
03:00 +18°C° 0 mm 1 mps 646 mmHg 86%
04:00 +18°C° 0 mm 1 mps 646 mmHg 85%
05:00 +19°C° 0 mm 1 mps 647 mmHg 83%
06:00 +18°C° 0 mm 0 mps 648 mmHg 82%
07:00 +19°C° 0 mm 0 mps 648 mmHg 80%
08:00 +20°C° 0.3 mm 0 mps 649 mmHg 78%
09:00 +23°C° 0.3 mm 1 mps 649 mmHg 77%
10:00 +24°C° 0.3 mm 1 mps 650 mmHg 75%
11:00 +23°C° 0.8 mm 1 mps 649 mmHg 80%
12:00 +22°C° 0.8 mm 1 mps 649 mmHg 85%
13:00 +22°C° 0.8 mm 1 mps 648 mmHg 90%
14:00 +21°C° 0.5 mm 1 mps 647 mmHg 90%
15:00 +21°C° 0.5 mm 1 mps 647 mmHg 91%
16:00 +20°C° 0.5 mm 1 mps 646 mmHg 91%
17:00 +20°C° 0.1 mm 1 mps 646 mmHg 90%
18:00 +19°C° 0.1 mm 1 mps 646 mmHg 90%
19:00 +19°C° 0.1 mm 1 mps 647 mmHg 89%
20:00 +19°C° 0 mm 1 mps 647 mmHg 87%
21:00 +18°C° 0 mm 1 mps 647 mmHg 84%
22:00 +18°C° 0 mm 1 mps 647 mmHg 82%
23:00 +18°C° 0 mm 1 mps 647 mmHg 80%

Tomorrow, 13 July, Monday

Time Temperature Precipitation Wind Pressure Humidity
00:00 +19°C° 0 mm 1 mps 647 mmHg 79%
01:00 +19°C° 0 mm 1 mps 647 mmHg 77%
02:00 +19°C° 0 mm 1 mps 647 mmHg 77%
03:00 +19°C° 0 mm 1 mps 647 mmHg 77%
04:00 +18°C° 0 mm 1 mps 647 mmHg 77%
05:00 +19°C° 0 mm 1 mps 647 mmHg 75%
06:00 +20°C° 0 mm 1 mps 648 mmHg 73%
07:00 +21°C° 0 mm 1 mps 649 mmHg 71%
08:00 +23°C° 0 mm 1 mps 649 mmHg 66%
09:00 +24°C° 0 mm 1 mps 650 mmHg 62%
10:00 +26°C° 0 mm 1 mps 651 mmHg 57%
11:00 +26°C° 0.6 mm 1 mps 650 mmHg 62%
12:00 +25°C° 0.6 mm 1 mps 649 mmHg 67%
13:00 +25°C° 0.6 mm 1 mps 649 mmHg 72%
14:00 +25°C° 0.9 mm 1 mps 648 mmHg 75%
15:00 +24°C° 0.9 mm 1 mps 648 mmHg 78%
16:00 +24°C° 0.9 mm 1 mps 647 mmHg 80%
17:00 +22°C° 0.2 mm 1 mps 647 mmHg 84%
18:00 +21°C° 0.2 mm 1 mps 647 mmHg 87%
19:00 +19°C° 0.2 mm 1 mps 647 mmHg 90%
20:00 +18°C° 0 mm 2 mps 647 mmHg 88%
21:00 +18°C° 0 mm 2 mps 648 mmHg 86%
22:00 +18°C° 0 mm 2 mps 648 mmHg 84%
23:00 +18°C° 0.1 mm 2 mps 648 mmHg 82%

Day after tomorrow, 14 July, Tuesday

Time Temperature Precipitation Wind Pressure Humidity
00:00 +18°C° 0.1 mm 2 mps 648 mmHg 81%
01:00 +19°C° 0.1 mm 2 mps 648 mmHg 80%
02:00 +18°C° 0.4 mm 2 mps 647 mmHg 80%
03:00 +18°C° 0.4 mm 2 mps 647 mmHg 81%
04:00 +18°C° 0.4 mm 2 mps 647 mmHg 82%
05:00 +18°C° 0.1 mm 2 mps 647 mmHg 81%
06:00 +19°C° 0.1 mm 1 mps 648 mmHg 80%
07:00 +20°C° 0.1 mm 1 mps 648 mmHg 80%
08:00 +21°C° 0 mm 1 mps 649 mmHg 73%
09:00 +23°C° 0 mm 2 mps 649 mmHg 67%
10:00 +25°C° 0 mm 2 mps 650 mmHg 60%
11:00 +25°C° 0.1 mm 2 mps 650 mmHg 57%
12:00 +26°C° 0.1 mm 2 mps 649 mmHg 55%
13:00 +27°C° 0.1 mm 2 mps 649 mmHg 52%
14:00 +26°C° 0.4 mm 1 mps 648 mmHg 57%
15:00 +26°C° 0.4 mm 1 mps 648 mmHg 62%
16:00 +25°C° 0.4 mm 1 mps 647 mmHg 68%
17:00 +23°C° 0.4 mm 1 mps 647 mmHg 74%
18:00 +21°C° 0.4 mm 1 mps 647 mmHg 80%
19:00 +19°C° 0.4 mm 1 mps 647 mmHg 86%
20:00 +19°C° 0 mm 1 mps 647 mmHg 83%
21:00 +18°C° 0 mm 2 mps 647 mmHg 80%
22:00 +17°C° 0 mm 2 mps 648 mmHg 77%
23:00 +17°C° 0 mm 2 mps 647 mmHg 73%

15 July, Wednesday

Time Temperature Precipitation Wind Pressure Humidity
00:00 +17°C° 0 mm 2 mps 647 mmHg 69%
01:00 +17°C° 0 mm 2 mps 647 mmHg 66%
02:00 +17°C° 0 mm 2 mps 646 mmHg 65%
03:00 +17°C° 0 mm 2 mps 646 mmHg 65%
04:00 +17°C° 0 mm 2 mps 646 mmHg 64%
05:00 +19°C° 0 mm 1 mps 647 mmHg 64%
06:00 +20°C° 0 mm 1 mps 647 mmHg 63%
07:00 +21°C° 0 mm 1 mps 648 mmHg 63%
08:00 +23°C° 0 mm 1 mps 649 mmHg 58%
09:00 +25°C° 0 mm 1 mps 649 mmHg 54%
10:00 +27°C° 0 mm 1 mps 650 mmHg 49%
11:00 +27°C° 0.2 mm 1 mps 649 mmHg 52%
12:00 +27°C° 0.2 mm 1 mps 649 mmHg 55%
13:00 +27°C° 0.2 mm 1 mps 648 mmHg 57%
14:00 +26°C° 0.9 mm 1 mps 648 mmHg 65%
15:00 +25°C° 0.9 mm 1 mps 647 mmHg 72%
16:00 +24°C° 0.9 mm 1 mps 646 mmHg 80%
17:00 +23°C° 0.5 mm 1 mps 646 mmHg 84%
18:00 +21°C° 0.5 mm 1 mps 646 mmHg 88%
19:00 +20°C° 0.5 mm 1 mps 646 mmHg 93%
20:00 +19°C° 0.3 mm 1 mps 646 mmHg 92%
21:00 +17°C° 0.3 mm 2 mps 646 mmHg 91%
22:00 +17°C° 0.3 mm 2 mps 647 mmHg 90%
23:00 +17°C° 0.1 mm 2 mps 646 mmHg 87%

16 July, Thursday

Time Temperature Precipitation Wind Pressure Humidity
00:00 +17°C° 0.1 mm 2 mps 646 mmHg 85%
01:00 +17°C° 0.1 mm 2 mps 646 mmHg 83%
02:00 +18°C° 0.1 mm 1 mps 646 mmHg 82%
03:00 +18°C° 0.1 mm 1 mps 646 mmHg 82%
04:00 +18°C° 0.1 mm 1 mps 646 mmHg 81%
05:00 +19°C° 0 mm 1 mps 646 mmHg 80%
06:00 +20°C° 0 mm 1 mps 647 mmHg 78%
07:00 +21°C° 0 mm 1 mps 648 mmHg 77%
08:00 +22°C° 0.1 mm 1 mps 648 mmHg 71%
09:00 +24°C° 0.1 mm 1 mps 649 mmHg 66%
10:00 +26°C° 0.1 mm 1 mps 649 mmHg 61%
11:00 +26°C° 0.9 mm 1 mps 649 mmHg 66%
12:00 +25°C° 0.9 mm 1 mps 648 mmHg 71%
13:00 +25°C° 0.9 mm 1 mps 647 mmHg 76%
14:00 +24°C° 1.9 mm 1 mps 647 mmHg 80%
15:00 +24°C° 1.9 mm 1 mps 646 mmHg 83%
16:00 +23°C° 1.9 mm 1 mps 646 mmHg 87%
17:00 +22°C° 0.6 mm 1 mps 646 mmHg 89%
18:00 +21°C° 0.6 mm 1 mps 646 mmHg 91%
19:00 +20°C° 0.6 mm 1 mps 646 mmHg 93%
20:00 +20°C° 0.2 mm 1 mps 646 mmHg 93%
21:00 +19°C° 0.2 mm 1 mps 647 mmHg 92%
22:00 +18°C° 0.2 mm 2 mps 647 mmHg 91%
23:00 +18°C° 0.1 mm 2 mps 647 mmHg 90%

17 July, Friday

Time Temperature Precipitation Wind Pressure Humidity
00:00 +19°C° 0.1 mm 1 mps 646 mmHg 89%
01:00 +19°C° 0.1 mm 1 mps 646 mmHg 88%
02:00 +19°C° 0.1 mm 1 mps 646 mmHg 88%
03:00 +19°C° 0.1 mm 1 mps 646 mmHg 88%
04:00 +18°C° 0.1 mm 1 mps 646 mmHg 87%
05:00 +19°C° 0 mm 1 mps 647 mmHg 85%
06:00 +20°C° 0 mm 1 mps 647 mmHg 83%
07:00 +21°C° 0 mm 1 mps 648 mmHg 81%
08:00 +22°C° 0.1 mm 1 mps 648 mmHg 78%
09:00 +23°C° 0.1 mm 1 mps 648 mmHg 74%
10:00 +25°C° 0.1 mm 1 mps 649 mmHg 71%
11:00 +25°C° 1.4 mm 1 mps 648 mmHg 75%
12:00 +24°C° 1.4 mm 1 mps 648 mmHg 78%
13:00 +24°C° 1.4 mm 1 mps 647 mmHg 82%
14:00 +24°C° 1.7 mm 1 mps 647 mmHg 84%
15:00 +23°C° 1.7 mm 1 mps 646 mmHg 85%
16:00 +23°C° 1.7 mm 1 mps 646 mmHg 87%
17:00 +22°C° 1 mm 1 mps 646 mmHg 89%
18:00 +21°C° 1 mm 1 mps 646 mmHg 92%
19:00 +20°C° 1 mm 1 mps 646 mmHg 94%
20:00 +20°C° 0.3 mm 1 mps 646 mmHg 94%
21:00 +20°C° 0.3 mm 1 mps 647 mmHg 93%
22:00 +19°C° 0.3 mm 1 mps 647 mmHg 93%
23:00 +19°C° 0.2 mm 1 mps 647 mmHg 93%
Show more